Regional Weather Roundup
Issued by NWS Sterling, VA

Home | Current Version | Previous Version | Graphics & Text | Print | Product List | Glossary On
Versions: 1 2 3 4 5 6 7 8 9 10 11 12 13 14 15 16 17 18 19 20 21 22 23 24 25 26 27 28 29 30 31 32 33 34 35 36 37 38 39 40 41 42 43 44 45 46 47 48 49 50
000
ASUS41 KLWX 030210
RWRLWX

REGIONAL WEATHER ROUNDUP
NATIONAL WEATHER SERVICE BALTIMORE MD/WASHINGTON DC
900 PM EST MON MAR 02 2015

Note: "FAIR" indicates few or no clouds below 12,000 feet
with no significant weather and/or obstructions to visibility.
 TC=TEMPERATURE CELSIUS

 * =Non NWS site. Station does not report precipitation (e.g. rain,
    snow, etc.), thunder, or fog.

DCZ001-MDZ009-015-VAZ040>042-051-053>054-030300-
WASHINGTON METRO

CITY           SKY/WX    TMP DP  RH WIND       PRES   REMARKS
WASHINGTON NAT PTCLDY    36  16  44 N9        30.42R WCI  29
DULLES         PTCLDY    32  15  49 N6        30.42R
ANDREWS AFB    CLEAR     33  15  48 NW9       30.39R WCI  25
FT BELVOIR     CLEAR     35  16  45 N5        30.42R
QUANTICO       CLEAR     35  18  49 NE9       30.42R WCI  28
COLLEGE PARK*  CLEAR     32  18  55 NW3       30.41R
LEESBURG*      CLEAR     32  19  59 N8        30.42R WCI  25
GAITHERSBURG*  CLEAR     30  12  47 NW8       30.43S WCI  23

$$

MDZ006>007-011-014-030300-
BALTIMORE METRO

CITY           SKY/WX    TMP DP  RH WIND       PRES   REMARKS
BWI AIRPORT    PTCLDY    31  15  52 NW8       30.39R WCI  23
MD SCIENCE CTR   N/A      1  32 100 MISG      30.40R
MARTIN STATE   CLEAR     32  18  55 W9        30.42R WCI  24
ANNAPOLIS      CLEAR     33  17  51 NW8       30.41R WCI  26
FORT MEADE*    CLEAR     30  16  55 NW3       30.43R

$$

MDZ012-015-019>023-030300-
MARYLAND EASTERN SHORE

CITY           SKY/WX    TMP DP  RH WIND       PRES   REMARKS
OCEAN CITY     CLEAR     32  17  54 CALM      30.38R
SALISBURY      CLEAR     33  18  53 NW7       30.38R
BAY BRIDGE AP*   N/A     32  18  55 NW10      30.41R WCI  24
CAMBRIDGE*     CLEAR     36  19  51 NW7       30.39R
EASTON*        CLEAR     34  19  55 NW8       30.43R WCI  27

$$

MDZ017>025-030300-
SOUTHERN MARYLAND

CITY           SKY/WX    TMP DP  RH WIND       PRES   REMARKS
PATUXENT RIVER CLEAR     33  19  56 NW8       30.39R WCI  26
ST INIGOES     NOT AVBL
LEONARDTOWN*   CLEAR     34  16  47 CALM      30.41R

$$

MDZ003>005-030300-
NORTH CENTRAL MARYLAND

CITY           SKY/WX    TMP DP  RH WIND       PRES   REMARKS
FREDERICK*     CLEAR     32  10  40 NW5       30.45R
HAGERSTOWN APT CLEAR     29  13  51 CALM      30.40R
WESTMINSTER*   PTCLDY    28  12  50 NW8       30.37R WCI  20

$$

MDZ501>502-030300-
WESTERN MARYLAND

CITY           SKY/WX    TMP DP  RH WIND       PRES   REMARKS
OAKLAND*       CLEAR     19  18  93 NW6       30.28S
CUMBERLAND*    NOT AVBL

$$

VAZ025>031-030300-
SHENANDOAH VALLEY

CITY           SKY/WX    TMP DP  RH WIND       PRES   REMARKS
WINCHESTER*    CLEAR     32  12  43 NW7       30.40R
FRONT ROYAL*   FAIR      32  14  47 CALM      30.38S
LURAY*         FAIR      36  19  51 N9        30.38R WCI  29
NEW MARKET*    FAIR      29  17  60 NW3       30.38R
STAUNTON*      CLEAR     32  13  44 CALM      30.38R
WAYNESBORO*    FAIR      34  11  38 N6        30.34R

$$

WVZ021-048>050-054>055-030300-
EASTERN WEST VIRGINIA PANHANDLE

CITY           SKY/WX    TMP DP  RH WIND       PRES   REMARKS
MARTINSBURG    CLEAR     32  13  45 N3        30.41R
PETERSBURG*    NOT AVBL

$$

VAZ036>039-050-030300-
CENTRAL FOOTHILLS

CITY           SKY/WX    TMP DP  RH WIND       PRES   REMARKS
CHARLOTTESVILL PTCLDY    38  15  39 E3        30.36R
CULPEPER*      CLEAR     34  18  51 NE5       30.40R
ORANGE*        CLEAR     36  19  51 CALM      30.40R
GORDONSVILLE*  FAIR      32  19  60 NE3       30.38R
WARRENTON*     FAIR      34  22  61 CALM      30.40R

$$

VAZ055>057-030300-
NORTH AND CENTRAL PIEDMONT

CITY           SKY/WX    TMP DP  RH WIND       PRES   REMARKS
FREDERICKSBRG* CLEAR     37  18  46 N7        30.39S
STAFFORD*      CLEAR     34  13  42 N7        30.44R

$$

NCZ024-NYZ072-PAZ021-071-VAZ022-071-030300-
OTHER REGIONAL OBSERVATIONS

CITY           SKY/WX    TMP DP  RH WIND       PRES   REMARKS
NEW YORK CITY  CLEAR     32   8  36 VRB7G18   30.31R
PHILADELPHIA   PTCLDY    32  16  51 W10       30.35R WCI  24
PITTSBURGH     FAIR      22  13  68 W3        30.40F
ROANOKE        MOCLDY    40  15  36 NW8       30.37R
RICHMOND       CLOUDY    39  16  39 CALM      30.38R
RALEIGH        PTCLDY    44  24  45 CALM      30.32R

$$

ANZ530>537-030300-
MARINE OBSERVATIONS

STATION/POSITION TIME  TEMP    WIND        PRES
                       AIR SEA DIR/SP/G
                 (UTC) (F)     (DEG/KT/KT) (MB)
THOMAS PT LIGHT  0200   35 32  320/  9/ 10 1030.8R
BALT KEY BRIDGE  0100          290/ 13/ 13 1028.8
COVE POINT       0100          350/  9/ 10 1028.7
LEWISETTA        0100      33   10/  7/ 13 1028.1
SOLOMONS ISLAND  0100      33                N/A

$$




USA.gov is the U.S. government's official web portal to all federal, state and local government web resources and services.